^^
Your Local Weather - Clay, NY Station Historical Data
Daily Summary for October 23, 2017 Units:  English    Metric   Both
« Previous Day
Next Day »
Daily Weekly Monthly Yearly Custom
  High: Low: Average:
Temperature: 72.4 °F 55.2 °F 65.3 °F
Dew Point: 58.1 °F 44.2 °F 51.9 °F
Humidity: 71% 49% 62%
Wind Speed: 11.0mph 0.0mph 4.9mph
Wind Gust: 20.0mph - -
Wind- - SSE
Pressure: 30.18 in 29.73 in -
Precipitation: 0.00 in    
Historical Graphs
 
 
Tabular Data for October 23, 2017
Time Temperature Dew Point Pressure Wind Wind Speed Wind Gust Humidity Rainfall Rate (Hourly) solar
00:03 62.2 °F 46.3 °F 30.18 in SSE 2.0 mph 4.0 mph 56% 0.00 in 0 W/m2
00:08 62.4 °F 46.0 °F 30.18 in SE 3.0 mph 5.0 mph 55% 0.00 in 0 W/m2
00:12 62.3 °F 45.9 °F 30.18 in SSE 2.0 mph 3.0 mph 55% 0.00 in 0 W/m2
00:18 62.3 °F 45.9 °F 30.17 in SE 3.0 mph 4.0 mph 55% 0.00 in 0 W/m2
00:24 62.5 °F 46.1 °F 30.17 in SSE 3.0 mph 8.0 mph 55% 0.00 in 0 W/m2
00:30 63.0 °F 45.6 °F 30.17 in SSE 4.0 mph 4.0 mph 53% 0.00 in 0 W/m2
00:36 63.1 °F 45.2 °F 30.17 in SSE 4.0 mph 5.0 mph 52% 0.00 in 0 W/m2
00:42 63.2 °F 45.3 °F 30.17 in South 4.0 mph 4.0 mph 52% 0.00 in 0 W/m2
00:48 63.1 °F 44.7 °F 30.17 in South 4.0 mph 4.0 mph 51% 0.00 in 0 W/m2
00:54 63.7 °F 45.2 °F 30.17 in SSE 6.0 mph 9.0 mph 51% 0.00 in 0 W/m2
01:00 63.6 °F 44.6 °F 30.17 in SSE 5.0 mph 5.0 mph 50% 0.00 in 0 W/m2
01:06 63.5 °F 44.5 °F 30.17 in SW 5.0 mph 10.0 mph 50% 0.00 in 0 W/m2
01:12 63.7 °F 44.7 °F 30.17 in SSW 6.0 mph 6.0 mph 50% 0.00 in 0 W/m2
01:18 63.8 °F 44.3 °F 30.17 in SSW 6.0 mph 7.0 mph 49% 0.00 in 0 W/m2
01:24 63.7 °F 44.2 °F 30.17 in SW 5.0 mph 6.0 mph 49% 0.00 in 0 W/m2
01:30 63.4 °F 44.4 °F 30.16 in SSE 4.0 mph 4.0 mph 50% 0.00 in 0 W/m2
01:36 63.4 °F 44.4 °F 30.16 in SSE 5.0 mph 7.0 mph 50% 0.00 in 0 W/m2
01:42 63.5 °F 44.5 °F 30.16 in SSE 6.0 mph 8.0 mph 50% 0.00 in 0 W/m2
01:48 63.3 °F 44.9 °F 30.16 in South 6.0 mph 8.0 mph 51% 0.00 in 0 W/m2
01:54 63.1 °F 44.7 °F 30.16 in South 5.0 mph 6.0 mph 51% 0.00 in 0 W/m2
02:00 63.0 °F 45.1 °F 30.16 in SSW 5.0 mph 5.0 mph 52% 0.00 in 0 W/m2
02:06 62.6 °F 44.7 °F 30.16 in South 4.0 mph 6.0 mph 52% 0.00 in 0 W/m2
02:12 62.7 °F 45.3 °F 30.15 in SSE 4.0 mph 5.0 mph 53% 0.00 in 0 W/m2
02:18 62.6 °F 45.2 °F 30.15 in South 4.0 mph 6.0 mph 53% 0.00 in 0 W/m2
02:24 62.5 °F 45.1 °F 30.15 in South 4.0 mph 4.0 mph 53% 0.00 in 0 W/m2
02:30 62.1 °F 45.2 °F 30.16 in SSE 3.0 mph 8.0 mph 54% 0.00 in 0 W/m2
02:36 62.0 °F 45.2 °F 30.16 in South 3.0 mph 8.0 mph 54% 0.00 in 0 W/m2
02:42 61.5 °F 45.2 °F 30.16 in South 2.0 mph 3.0 mph 55% 0.00 in 0 W/m2
02:48 61.4 °F 45.6 °F 30.15 in SSE 3.0 mph 5.0 mph 56% 0.00 in 0 W/m2
03:02 61.7 °F 45.8 °F 30.15 in SE 4.0 mph 6.0 mph 56% 0.00 in 0 W/m2
03:08 62.0 °F 45.6 °F 30.15 in SE 6.0 mph 7.0 mph 55% 0.00 in 0 W/m2
03:14 61.8 °F 45.9 °F 30.15 in SSE 4.0 mph 7.0 mph 56% 0.00 in 0 W/m2
03:20 61.5 °F 46.1 °F 30.15 in SE 4.0 mph 4.0 mph 57% 0.00 in 0 W/m2
03:26 61.8 °F 45.9 °F 30.15 in South 5.0 mph 6.0 mph 56% 0.00 in 0 W/m2
03:32 61.6 °F 45.7 °F 30.15 in South 3.0 mph 4.0 mph 56% 0.00 in 0 W/m2
03:38 61.1 °F 45.7 °F 30.15 in South 3.0 mph 4.0 mph 57% 0.00 in 0 W/m2
03:44 61.3 °F 45.9 °F 30.15 in SSE 3.0 mph 7.0 mph 57% 0.00 in 0 W/m2
03:50 61.5 °F 46.1 °F 30.15 in SSE 5.0 mph 5.0 mph 57% 0.00 in 0 W/m2
03:56 61.3 °F 45.9 °F 30.15 in SSE 4.0 mph 5.0 mph 57% 0.00 in 0 W/m2
04:02 61.4 °F 46.5 °F 30.15 in SSE 5.0 mph 9.0 mph 58% 0.00 in 0 W/m2
04:08 61.2 °F 46.3 °F 30.15 in South 5.0 mph 9.0 mph 58% 0.00 in 0 W/m2
04:14 61.2 °F 46.3 °F 30.15 in South 5.0 mph 8.0 mph 58% 0.00 in 0 W/m2
04:20 61.3 °F 46.4 °F 30.15 in SW 5.0 mph 6.0 mph 58% 0.00 in 0 W/m2
04:26 61.2 °F 46.8 °F 30.15 in SSE 5.0 mph 7.0 mph 59% 0.00 in 0 W/m2
04:32 61.3 °F 46.4 °F 30.15 in SE 5.0 mph 7.0 mph 58% 0.00 in 0 W/m2
04:38 60.9 °F 46.5 °F 30.15 in SSE 4.0 mph 9.0 mph 59% 0.00 in 0 W/m2
04:44 60.9 °F 46.5 °F 30.15 in South 4.0 mph 5.0 mph 59% 0.00 in 0 W/m2
04:50 60.9 °F 46.5 °F 30.15 in SSE 5.0 mph 5.0 mph 59% 0.00 in 0 W/m2
04:56 60.7 °F 46.7 °F 30.14 in SE 4.0 mph 6.0 mph 60% 0.00 in 0 W/m2
05:02 60.7 °F 46.7 °F 30.14 in SSE 5.0 mph 5.0 mph 60% 0.00 in 0 W/m2
05:08 60.5 °F 46.5 °F 30.14 in South 4.0 mph 6.0 mph 60% 0.00 in 0 W/m2
05:14 60.4 °F 46.4 °F 30.14 in South 4.0 mph 4.0 mph 60% 0.00 in 0 W/m2
05:20 60.3 °F 46.8 °F 30.14 in SE 3.0 mph 3.0 mph 61% 0.00 in 0 W/m2
05:26 60.1 °F 46.6 °F 30.14 in South 3.0 mph 3.0 mph 61% 0.00 in 0 W/m2
05:32 60.0 °F 46.5 °F 30.14 in South 3.0 mph 6.0 mph 61% 0.00 in 0 W/m2
05:38 60.0 °F 46.5 °F 30.14 in SSE 3.0 mph 6.0 mph 61% 0.00 in 0 W/m2
05:44 59.8 °F 46.7 °F 30.14 in SE 3.0 mph 6.0 mph 62% 0.00 in 0 W/m2
05:50 59.7 °F 46.7 °F 30.14 in SSE 2.0 mph 3.0 mph 62% 0.00 in 0 W/m2
05:56 60.0 °F 46.5 °F 30.14 in South 3.0 mph 9.0 mph 61% 0.00 in 0 W/m2
06:02 60.0 °F 46.5 °F 30.14 in South 4.0 mph 5.0 mph 61% 0.00 in 0 W/m2
06:08 60.1 °F 46.6 °F 30.14 in South 4.0 mph 5.0 mph 61% 0.00 in 0 W/m2
06:14 60.0 °F 46.9 °F 30.13 in SSE 3.0 mph 5.0 mph 62% 0.00 in 0 W/m2
06:20 59.9 °F 46.8 °F 30.13 in SSE 3.0 mph 5.0 mph 62% 0.00 in 0 W/m2
06:26 59.7 °F 46.7 °F 30.13 in SE 2.0 mph 5.0 mph 62% 0.00 in 0 W/m2
06:32 59.3 °F 46.7 °F 30.13 in SSE 2.0 mph 5.0 mph 63% 0.00 in 0 W/m2
06:38 58.8 °F 46.6 °F 30.13 in SE 3.0 mph 5.0 mph 64% 0.00 in 0 W/m2
06:44 58.4 °F 46.7 °F 30.13 in SE 2.0 mph 2.0 mph 65% 0.00 in 0 W/m2
06:50 57.8 °F 46.5 °F 30.13 in SE 1.0 mph 1.0 mph 66% 0.00 in 0 W/m2
06:56 57.1 °F 46.2 °F 30.14 in SE 1.0 mph 1.0 mph 67% 0.00 in 0 W/m2
07:02 56.9 °F 46.1 °F 30.14 in SE 1.0 mph 1.0 mph 67% 0.00 in 0 W/m2
07:08 56.3 °F 45.9 °F 30.14 in Calm   2.0 mph 68% 0.00 in 0 W/m2
07:14 55.8 °F 45.8 °F 30.14 in SE 1.0 mph 1.0 mph 69% 0.00 in 0 W/m2
07:20 55.2 °F 46.0 °F 30.14 in SE 1.0 mph 2.0 mph 71% 0.00 in 0 W/m2
07:26 55.5 °F 46.2 °F 30.14 in SE 1.0 mph 3.0 mph 71% 0.00 in 0 W/m2
07:32 56.0 °F 46.4 °F 30.14 in SSE 3.0 mph 5.0 mph 70% 0.00 in 5 W/m2
07:38 56.5 °F 46.4 °F 30.13 in SE 3.0 mph 9.0 mph 69% 0.00 in 9 W/m2
07:44 57.0 °F 46.9 °F 30.13 in SSE 3.0 mph 3.0 mph 69% 0.00 in 11 W/m2
07:50 56.8 °F 46.7 °F 30.14 in ESE 2.0 mph 2.0 mph 69% 0.00 in 18 W/m2
07:56 56.7 °F 47.0 °F 30.14 in SE 2.0 mph 4.0 mph 70% 0.00 in 23 W/m2
08:02 56.8 °F 47.1 °F 30.14 in SE 1.0 mph 2.0 mph 70% 0.00 in 32 W/m2
08:08 56.1 °F 46.8 °F 30.14 in Calm   2.0 mph 71% 0.00 in 42 W/m2
08:14 56.1 °F 46.8 °F 30.13 in ESE 1.0 mph 2.0 mph 71% 0.00 in 44 W/m2
08:20 56.2 °F 46.9 °F 30.14 in SE 1.0 mph 1.0 mph 71% 0.00 in 44 W/m2
08:28 57.0 °F 47.7 °F 30.14 in SE 1.0 mph 2.0 mph 71% 0.00 in 54 W/m2
08:40 58.4 °F 48.7 °F 30.14 in SSE 3.0 mph 6.0 mph 70% 0.00 in 153 W/m2
08:46 59.2 °F 49.0 °F 30.14 in SSE 3.0 mph 6.0 mph 69% 0.00 in 153 W/m2
08:52 60.0 °F 49.8 °F 30.14 in ESE 3.0 mph 5.0 mph 69% 0.00 in 155 W/m2
08:58 60.6 °F 50.0 °F 30.14 in SSE 4.0 mph 6.0 mph 68% 0.00 in 202 W/m2
09:04 60.9 °F 50.3 °F 30.14 in SSE 4.0 mph 8.0 mph 68% 0.00 in 183 W/m2
09:10 61.3 °F 50.2 °F 30.14 in SE 5.0 mph 5.0 mph 67% 0.00 in 264 W/m2
09:16 61.9 °F 50.8 °F 30.13 in SE 4.0 mph 9.0 mph 67% 0.00 in 306 W/m2
09:22 62.5 °F 51.4 °F 30.13 in SE 4.0 mph 6.0 mph 67% 0.00 in 329 W/m2
09:28 63.0 °F 51.9 °F 30.13 in South 4.0 mph 6.0 mph 67% 0.00 in 181 W/m2
09:34 62.7 °F 52.0 °F 30.12 in SE 4.0 mph 4.0 mph 68% 0.00 in 202 W/m2
09:40 62.7 °F 52.4 °F 30.12 in SSE 6.0 mph 7.0 mph 69% 0.00 in 262 W/m2
09:46 62.8 °F 52.1 °F 30.12 in SSW 6.0 mph 8.0 mph 68% 0.00 in 207 W/m2
09:52 62.8 °F 52.9 °F 30.12 in SSE 6.0 mph 9.0 mph 70% 0.00 in 232 W/m2
09:58 62.9 °F 52.6 °F 30.12 in SSE 6.0 mph 9.0 mph 69% 0.00 in 221 W/m2
10:04 63.0 °F 53.1 °F 30.11 in South 6.0 mph 7.0 mph 70% 0.00 in 190 W/m2
10:16 63.2 °F 53.3 °F 30.11 in SE 4.0 mph 9.0 mph 70% 0.00 in 158 W/m2
10:22 63.3 °F 53.0 °F 30.11 in SSE 6.0 mph 10.0 mph 69% 0.00 in 202 W/m2
10:28 63.6 °F 53.2 °F 30.10 in SSE 7.0 mph 10.0 mph 69% 0.00 in 195 W/m2
10:34 63.8 °F 53.4 °F 30.10 in SSE 7.0 mph 7.0 mph 69% 0.00 in 206 W/m2
10:40 64.1 °F 53.7 °F 30.10 in SW 6.0 mph 6.0 mph 69% 0.00 in 218 W/m2
10:46 64.2 °F 53.4 °F 30.10 in SE 6.0 mph 8.0 mph 68% 0.00 in 225 W/m2
10:52 64.3 °F 53.9 °F 30.09 in SSE 8.0 mph 8.0 mph 69% 0.00 in 221 W/m2
10:58 64.6 °F 53.8 °F 30.09 in South 7.0 mph 11.0 mph 68% 0.00 in 218 W/m2
11:04 64.7 °F 53.9 °F 30.09 in SSE 6.0 mph 12.0 mph 68% 0.00 in 223 W/m2
11:10 64.9 °F 53.7 °F 30.08 in South 8.0 mph 8.0 mph 67% 0.00 in 234 W/m2
11:16 65.2 °F 53.6 °F 30.08 in South 9.0 mph 9.0 mph 66% 0.00 in 257 W/m2
11:22 65.6 °F 54.3 °F 30.08 in SE 8.0 mph 10.0 mph 67% 0.00 in 287 W/m2
11:28 66.1 °F 54.4 °F 30.08 in SW 7.0 mph 12.0 mph 66% 0.00 in 320 W/m2
11:34 66.5 °F 54.4 °F 30.08 in SSW 9.0 mph 12.0 mph 65% 0.00 in 288 W/m2
11:40 66.6 °F 54.5 °F 30.07 in South 8.0 mph 8.0 mph 65% 0.00 in 301 W/m2
11:46 66.8 °F 54.7 °F 30.07 in South 7.0 mph 14.0 mph 65% 0.00 in 295 W/m2
11:52 66.7 °F 54.1 °F 30.06 in South 9.0 mph 14.0 mph 64% 0.00 in 269 W/m2
11:58 67.2 °F 54.2 °F 30.06 in SE 9.0 mph 16.0 mph 63% 0.00 in 432 W/m2
12:04 68.1 °F 54.6 °F 30.06 in South 9.0 mph 10.0 mph 62% 0.00 in 496 W/m2
12:10 68.1 °F 54.1 °F 30.06 in SE 10.0 mph 10.0 mph 61% 0.00 in 343 W/m2
12:16 68.5 °F 54.5 °F 30.06 in SSE 11.0 mph 11.0 mph 61% 0.00 in 510 W/m2
12:22 68.9 °F 54.0 °F 30.05 in SW 9.0 mph 9.0 mph 59% 0.00 in 424 W/m2
12:28 68.6 °F 53.7 °F 30.06 in South 10.0 mph 12.0 mph 59% 0.00 in 360 W/m2
12:34 68.6 °F 54.6 °F 30.05 in SSE 8.0 mph 10.0 mph 61% 0.00 in 388 W/m2
12:40 68.6 °F 54.2 °F 30.04 in SSE 8.0 mph 8.0 mph 60% 0.00 in 327 W/m2
12:46 68.6 °F 54.6 °F 30.04 in SE 8.0 mph 16.0 mph 61% 0.00 in 271 W/m2
12:52 68.3 °F 53.9 °F 30.04 in South 9.0 mph 11.0 mph 60% 0.00 in 264 W/m2
12:58 68.6 °F 54.6 °F 30.04 in SSW 8.0 mph 11.0 mph 61% 0.00 in 294 W/m2
13:04 68.8 °F 54.3 °F 30.03 in SSE 7.0 mph 8.0 mph 60% 0.00 in 260 W/m2
13:10 69.1 °F 54.2 °F 30.03 in ESE 8.0 mph 8.0 mph 59% 0.00 in 267 W/m2
13:16 69.4 °F 54.4 °F 30.03 in SSW 9.0 mph 10.0 mph 59% 0.00 in 411 W/m2
13:22 69.8 °F 54.8 °F 30.02 in SSE 7.0 mph 8.0 mph 59% 0.00 in 301 W/m2
13:28 69.6 °F 54.6 °F 30.02 in South 6.0 mph 11.0 mph 59% 0.00 in 239 W/m2
13:40 69.7 °F 54.7 °F 30.02 in South 5.0 mph 6.0 mph 59% 0.00 in 243 W/m2
13:46 69.7 °F 54.3 °F 30.01 in South 6.0 mph 7.0 mph 58% 0.00 in 236 W/m2
13:52 69.8 °F 54.4 °F 30.01 in SSE 6.0 mph 8.0 mph 58% 0.00 in 229 W/m2
13:58 69.8 °F 54.4 °F 30.01 in SSW 7.0 mph 8.0 mph 58% 0.00 in 202 W/m2
14:04 69.9 °F 54.0 °F 30.01 in SE 6.0 mph 9.0 mph 57% 0.00 in 188 W/m2
14:10 70.0 °F 54.5 °F 30.00 in SSE 5.0 mph 5.0 mph 58% 0.00 in 192 W/m2
14:16 70.1 °F 54.2 °F 30.00 in South 5.0 mph 7.0 mph 57% 0.00 in 236 W/m2
14:22 70.2 °F 54.7 °F 29.99 in South 6.0 mph 6.0 mph 58% 0.00 in 253 W/m2
14:28 70.6 °F 54.1 °F 29.99 in South 5.0 mph 8.0 mph 56% 0.00 in 237 W/m2
14:34 70.5 °F 54.0 °F 29.99 in SSW 6.0 mph 6.0 mph 56% 0.00 in 223 W/m2
14:40 70.4 °F 54.4 °F 29.98 in South 5.0 mph 6.0 mph 57% 0.00 in 197 W/m2
14:46 70.3 °F 53.9 °F 29.98 in SE 5.0 mph 11.0 mph 56% 0.00 in 237 W/m2
14:52 70.5 °F 54.5 °F 29.98 in South 7.0 mph 7.0 mph 57% 0.00 in 348 W/m2
14:58 70.7 °F 54.2 °F 29.97 in SW 5.0 mph 7.0 mph 56% 0.00 in 241 W/m2
15:04 70.6 °F 54.6 °F 29.96 in South 5.0 mph 5.0 mph 57% 0.00 in 202 W/m2
15:10 70.5 °F 54.0 °F 29.96 in SSE 5.0 mph 5.0 mph 56% 0.00 in 171 W/m2
15:16 70.5 °F 54.0 °F 29.96 in SW 6.0 mph 12.0 mph 56% 0.00 in 369 W/m2
15:22 71.5 °F 54.5 °F 29.96 in SSE 7.0 mph 11.0 mph 55% 0.00 in 547 W/m2
15:28 72.3 °F 53.2 °F 29.95 in SSW 7.0 mph 11.0 mph 51% 0.00 in 555 W/m2
15:34 72.4 °F 53.2 °F 29.95 in South 9.0 mph 11.0 mph 51% 0.00 in 408 W/m2
15:40 72.3 °F 53.7 °F 29.96 in South 7.0 mph 7.0 mph 52% 0.00 in 253 W/m2
15:46 72.0 °F 53.9 °F 29.95 in SSE 6.0 mph 10.0 mph 53% 0.00 in 262 W/m2
15:52 71.7 °F 53.1 °F 29.94 in SSW 8.0 mph 8.0 mph 52% 0.00 in 141 W/m2
15:58 71.4 °F 53.9 °F 29.94 in South 7.0 mph 10.0 mph 54% 0.00 in 93 W/m2
16:04 71.0 °F 53.5 °F 29.94 in SW 7.0 mph 20.0 mph 54% 0.00 in 97 W/m2
16:10 70.8 °F 53.3 °F 29.94 in SW 8.0 mph 9.0 mph 54% 0.00 in 100 W/m2
16:16 70.8 °F 53.3 °F 29.94 in SSE 8.0 mph 10.0 mph 54% 0.00 in 104 W/m2
16:22 70.7 °F 53.7 °F 29.94 in South 7.0 mph 8.0 mph 55% 0.00 in 100 W/m2
16:28 70.7 °F 53.7 °F 29.93 in South 6.0 mph 8.0 mph 55% 0.00 in 86 W/m2
16:40 70.5 °F 54.0 °F 29.92 in SSW 6.0 mph 8.0 mph 56% 0.00 in 86 W/m2
16:46 70.5 °F 54.5 °F 29.92 in SSE 7.0 mph 8.0 mph 57% 0.00 in 84 W/m2
16:52 70.4 °F 54.4 °F 29.92 in ESE 6.0 mph 6.0 mph 57% 0.00 in 76 W/m2
16:58 70.3 °F 54.8 °F 29.92 in SSE 5.0 mph 10.0 mph 58% 0.00 in 49 W/m2
17:04 70.4 °F 54.9 °F 29.92 in SSE 6.0 mph 7.0 mph 58% 0.00 in 56 W/m2
17:10 70.3 °F 54.8 °F 29.91 in SE 6.0 mph 9.0 mph 58% 0.00 in 49 W/m2
17:16 70.1 °F 55.1 °F 29.91 in ESE 6.0 mph 9.0 mph 59% 0.00 in 42 W/m2
17:22 69.9 °F 54.9 °F 29.90 in SSE 5.0 mph 6.0 mph 59% 0.00 in 35 W/m2
17:28 69.6 °F 55.1 °F 29.90 in SSE 4.0 mph 8.0 mph 60% 0.00 in 28 W/m2
17:34 69.5 °F 55.5 °F 29.90 in SSE 4.0 mph 4.0 mph 61% 0.00 in 25 W/m2
17:40 69.4 °F 55.8 °F 29.90 in ESE 5.0 mph 10.0 mph 62% 0.00 in 19 W/m2
17:46 69.3 °F 55.7 °F 29.90 in South 5.0 mph 10.0 mph 62% 0.00 in 14 W/m2
17:52 69.1 °F 56.0 °F 29.89 in SSE 4.0 mph 5.0 mph 63% 0.00 in 9 W/m2
17:58 69.0 °F 55.9 °F 29.89 in SSE 4.0 mph 8.0 mph 63% 0.00 in 5 W/m2
18:04 68.7 °F 56.0 °F 29.89 in SSE 3.0 mph 5.0 mph 64% 0.00 in 0 W/m2
18:10 68.7 °F 56.0 °F 29.89 in SE 4.0 mph 4.0 mph 64% 0.00 in 0 W/m2
18:16 68.3 °F 56.1 °F 29.89 in East 3.0 mph 6.0 mph 65% 0.00 in 0 W/m2
18:28 68.0 °F 56.2 °F 29.88 in SSE 4.0 mph 5.0 mph 66% 0.00 in 0 W/m2
18:34 67.9 °F 56.1 °F 29.87 in SSE 4.0 mph 4.0 mph 66% 0.00 in 0 W/m2
18:40 67.8 °F 56.4 °F 29.87 in SSE 4.0 mph 6.0 mph 67% 0.00 in 0 W/m2
18:46 67.7 °F 56.3 °F 29.87 in SE 4.0 mph 6.0 mph 67% 0.00 in 0 W/m2
18:52 67.8 °F 56.4 °F 29.87 in SE 4.0 mph 4.0 mph 67% 0.00 in 0 W/m2
18:58 67.6 °F 56.2 °F 29.87 in SE 3.0 mph 4.0 mph 67% 0.00 in 0 W/m2
19:04 67.3 °F 56.4 °F 29.87 in ESE 2.0 mph 4.0 mph 68% 0.00 in 0 W/m2
19:10 67.0 °F 56.5 °F 29.86 in ESE 2.0 mph 4.0 mph 69% 0.00 in 0 W/m2
19:16 66.9 °F 56.8 °F 29.86 in SE 3.0 mph 5.0 mph 70% 0.00 in 0 W/m2
19:22 67.3 °F 56.8 °F 29.86 in SSE 3.0 mph 7.0 mph 69% 0.00 in 0 W/m2
19:28 67.2 °F 57.1 °F 29.85 in SSE 3.0 mph 7.0 mph 70% 0.00 in 0 W/m2
19:34 67.3 °F 57.2 °F 29.85 in ESE 3.0 mph 7.0 mph 70% 0.00 in 0 W/m2
19:40 67.3 °F 57.2 °F 29.85 in SSE 3.0 mph 3.0 mph 70% 0.00 in 0 W/m2
19:46 67.3 °F 57.2 °F 29.85 in ESE 3.0 mph 5.0 mph 70% 0.00 in 0 W/m2
19:52 67.4 °F 57.3 °F 29.84 in SSE 4.0 mph 4.0 mph 70% 0.00 in 0 W/m2
19:58 67.4 °F 57.3 °F 29.84 in SE 4.0 mph 6.0 mph 70% 0.00 in 0 W/m2
20:04 67.5 °F 57.4 °F 29.84 in SSE 4.0 mph 4.0 mph 70% 0.00 in 0 W/m2
20:10 67.3 °F 57.6 °F 29.84 in SE 3.0 mph 3.0 mph 71% 0.00 in 0 W/m2
20:16 67.4 °F 57.7 °F 29.83 in SSE 3.0 mph 5.0 mph 71% 0.00 in 0 W/m2
20:22 67.4 °F 57.7 °F 29.83 in SSE 3.0 mph 4.0 mph 71% 0.00 in 0 W/m2
20:28 67.4 °F 57.7 °F 29.83 in ESE 3.0 mph 4.0 mph 71% 0.00 in 0 W/m2
20:34 67.6 °F 57.9 °F 29.83 in SSE 4.0 mph 9.0 mph 71% 0.00 in 0 W/m2
20:40 67.7 °F 58.0 °F 29.82 in ESE 4.0 mph 4.0 mph 71% 0.00 in 0 W/m2
20:46 68.0 °F 57.8 °F 29.82 in SSE 5.0 mph 5.0 mph 70% 0.00 in 0 W/m2
20:52 68.3 °F 58.1 °F 29.82 in SSE 5.0 mph 9.0 mph 70% 0.00 in 0 W/m2
20:58 68.6 °F 58.0 °F 29.81 in East 6.0 mph 9.0 mph 69% 0.00 in 0 W/m2
21:04 68.5 °F 57.9 °F 29.81 in ESE 5.0 mph 6.0 mph 69% 0.00 in 0 W/m2
21:10 68.5 °F 57.9 °F 29.81 in SE 5.0 mph 5.0 mph 69% 0.00 in 0 W/m2
21:16 68.6 °F 58.0 °F 29.81 in SSE 6.0 mph 11.0 mph 69% 0.00 in 0 W/m2
21:22 68.8 °F 57.8 °F 29.80 in SE 6.0 mph 9.0 mph 68% 0.00 in 0 W/m2
21:28 68.7 °F 57.7 °F 29.79 in ESE 6.0 mph 9.0 mph 68% 0.00 in 0 W/m2
21:34 68.8 °F 57.8 °F 29.79 in SSE 6.0 mph 7.0 mph 68% 0.00 in 0 W/m2
21:40 69.0 °F 57.6 °F 29.79 in ESE 7.0 mph 10.0 mph 67% 0.00 in 0 W/m2
21:46 69.1 °F 57.7 °F 29.79 in SSE 8.0 mph 10.0 mph 67% 0.00 in 0 W/m2
21:52 69.1 °F 57.7 °F 29.79 in SSE 7.0 mph 17.0 mph 67% 0.00 in 0 W/m2
21:58 69.3 °F 57.9 °F 29.79 in South 8.0 mph 17.0 mph 67% 0.00 in 0 W/m2
22:04 69.3 °F 57.5 °F 29.80 in SE 7.0 mph 11.0 mph 66% 0.00 in 0 W/m2
22:10 69.3 °F 57.9 °F 29.79 in South 6.0 mph 18.0 mph 67% 0.00 in 0 W/m2
22:16 69.4 °F 57.5 °F 29.79 in South 6.0 mph 18.0 mph 66% 0.00 in 0 W/m2
22:22 69.4 °F 57.5 °F 29.79 in SSE 6.0 mph 8.0 mph 66% 0.00 in 0 W/m2
22:28 69.4 °F 57.5 °F 29.79 in SSE 6.0 mph 8.0 mph 66% 0.00 in 0 W/m2
22:34 69.4 °F 57.5 °F 29.78 in SE 5.0 mph 8.0 mph 66% 0.00 in 0 W/m2
22:40 69.3 °F 57.5 °F 29.78 in SSE 5.0 mph 5.0 mph 66% 0.00 in 0 W/m2
22:46 69.2 °F 57.4 °F 29.77 in SSE 5.0 mph 10.0 mph 66% 0.00 in 0 W/m2
22:52 69.3 °F 57.9 °F 29.76 in SSE 6.0 mph 6.0 mph 67% 0.00 in 0 W/m2
22:58 69.3 °F 57.9 °F 29.76 in SE 6.0 mph 7.0 mph 67% 0.00 in 0 W/m2
23:04 69.3 °F 57.5 °F 29.76 in SE 6.0 mph 8.0 mph 66% 0.00 in 0 W/m2
23:10 69.4 °F 57.5 °F 29.76 in SE 6.0 mph 6.0 mph 66% 0.00 in 0 W/m2
23:16 69.5 °F 57.6 °F 29.76 in SE 6.0 mph 8.0 mph 66% 0.00 in 0 W/m2
23:22 69.8 °F 57.5 °F 29.75 in SE 7.0 mph 8.0 mph 65% 0.00 in 0 W/m2
23:28 69.6 °F 57.7 °F 29.75 in SSE 6.0 mph 8.0 mph 66% 0.00 in 0 W/m2
23:30 69.6 °F 57.7 °F 29.75 in SE 5.0 mph 5.0 mph 66% 0.00 in 0 W/m2
23:36 69.6 °F 57.3 °F 29.75 in ESE 6.0 mph 12.0 mph 65% 0.00 in 0 W/m2
23:42 69.7 °F 57.4 °F 29.74 in SSE 8.0 mph 10.0 mph 65% 0.00 in 0 W/m2
23:48 69.6 °F 57.3 °F 29.74 in SE 7.0 mph 10.0 mph 65% 0.00 in 0 W/m2
23:54 69.7 °F 57.0 °F 29.73 in SSE 6.0 mph 11.0 mph 64% 0.00 in 0 W/m2
23:56 69.8 °F 57.1 °F 29.73 in SSE 7.0 mph 11.0 mph 64% 0.00 in 0 W/m2
Country Meadow, Clay, NY, USA
Compliments of Weather Underground - 2 mb